GW2440 Weather Reports


Display with metric or nautical units.
time (UTC)temp
F
wind
direction
speed
MPH
gust
MPH
rain 1hr
in
rain 24hr
in
rain mn
in
humidity
%
barometer
mb
20260505061217 64 99 0.0 0.0 0.00 0.00 0.00 92 1017.2
20260505060715 64 99 0.0 0.0 0.00 0.00 0.00 92 1017.2
20260505060211 64 99 0.0 0.0 0.00 0.00 0.00 92 1017.2
20260505055707 64 99 0.0 0.0 0.00 0.00 0.00 91 1017.5
20260505055203 64 99 0.0 0.0 0.00 0.00 0.00 90 1017.5
20260505054701 64 99 0.0 0.0 0.00 0.00 0.00 90 1017.2
20260505054158 65 99 0.0 0.0 0.00 0.00 0.00 89 1017.5
20260505053656 65 99 0.0 0.0 0.00 0.00 0.00 89 1017.9
20260505053152 65 99 0.0 0.0 0.00 0.00 0.00 89 1017.5
20260505052649 65 98 0.0 0.0 0.00 0.00 0.00 88 1017.9
20260505052147 65 98 0.0 0.0 0.00 0.00 0.00 88 1017.9
20260505051643 66 99 0.0 0.0 0.00 0.00 0.00 88 1018.2
20260505051142 66 99 0.0 0.0 0.00 0.00 0.00 86 1017.9
20260505050639 66 99 0.0 0.0 0.00 0.00 0.00 86 1018.2
20260505050138 66 99 0.0 0.0 0.00 0.00 0.00 86 1017.9
20260505041607 67 75 0.0 1.0 0.00 0.00 0.00 84 1018.2
20260505041104 67 116 1.0 1.0 0.00 0.00 0.00 84 1017.9
20260505040602 68 79 1.0 1.0 0.00 0.00 0.00 83 1018.2
20260505040059 68 68 1.0 2.0 0.00 0.00 0.00 83 1018.2
20260505035555 68 58 2.0 2.0 0.00 0.00 0.00 83 1018.2
20260505035051 68 82 3.0 5.0 0.00 0.00 0.00 83 1018.2
20260505034548 68 75 1.0 2.0 0.00 0.00 0.00 83 1018.2
20260505034044 68 88 2.0 2.0 0.00 0.00 0.00 83 1018.2
20260505033542 68 73 4.0 5.0 0.00 0.00 0.00 83 1018.2
20260505033040 68 115 3.0 5.0 0.00 0.00 0.00 83 1018.2
20260505032537 68 62 1.0 1.0 0.00 0.00 0.00 82 1018.6
20260505032034 68 79 2.0 3.0 0.00 0.00 0.00 82 1018.6
20260505031531 68 111 2.0 2.0 0.00 0.00 0.00 82 1018.6
20260505031027 68 56 4.0 5.0 0.00 0.00 0.00 82 1018.9
20260505030524 68 47 4.0 5.0 0.00 0.00 0.00 82 1018.6
20260505030020 68 73 3.0 3.0 0.00 0.00 0.00 82 1018.6
20260505025516 68 63 1.0 2.0 0.00 0.00 0.00 81 1018.9
20260505025016 68 75 3.0 3.0 0.00 0.00 0.00 81 1018.9
20260505024512 68 57 2.0 2.0 0.00 0.00 0.00 81 1018.9
20260505024009 68 54 3.0 3.0 0.00 0.00 0.00 80 1018.6
20260505023506 68 74 2.0 3.0 0.00 0.00 0.00 80 1018.6
20260505023004 69 75 2.0 2.0 0.00 0.00 0.00 81 1018.6
20260505022501 69 91 1.0 2.0 0.00 0.00 0.00 80 1018.9
20260505021958 69 132 0.0 1.0 0.00 0.00 0.00 80 1018.6
20260505021454 69 79 0.0 1.0 0.00 0.00 0.00 79 1018.6
20260505020950 69 67 2.0 2.0 0.00 0.00 0.00 79 1018.6
20260505020445 69 55 3.0 3.0 0.00 0.00 0.00 79 1018.2
20260505015943 69 60 1.0 2.0 0.00 0.00 0.00 79 1018.2
20260505015440 69 65 2.0 3.0 0.00 0.00 0.00 78 1018.6
20260505014937 69 86 3.0 3.0 0.00 0.00 0.00 78 1018.2
20260505014434 69 80 2.0 2.0 0.00 0.00 0.00 78 1018.2
20260505013931 69 65 4.0 6.0 0.00 0.00 0.00 78 1018.2
20260505013428 69 58 4.0 5.0 0.00 0.00 0.00 77 1018.2
20260505012925 69 66 2.0 3.0 0.00 0.00 0.00 77 1018.2
20260505012423 70 56 2.0 2.0 0.00 0.00 0.00 76 1018.2
20260505011920 70 67 3.0 3.0 0.00 0.00 0.00 76 1018.2
20260505011416 70 85 3.0 3.0 0.00 0.00 0.00 75 1017.9
20260505010913 70 76 2.0 2.0 0.00 0.00 0.00 75 1018.2
20260505010409 70 57 4.0 5.0 0.00 0.00 0.00 74 1017.9
20260505005904 71 86 3.0 3.0 0.00 0.00 0.00 74 1017.9
20260505005402 71 62 3.0 3.0 0.00 0.00 0.00 74 1018.2
20260505004859 71 52 3.0 3.0 0.00 0.00 0.00 74 1017.9
20260505004355 71 66 3.0 5.0 0.00 0.00 0.00 73 1018.2
20260505003853 71 67 3.0 3.0 0.00 0.00 0.00 73 1017.9
20260505003350 71 66 1.0 2.0 0.00 0.00 0.00 72 1017.5
20260505002846 71 56 4.0 6.0 0.00 0.00 0.00 71 1017.5
20260505002342 71 62 3.0 3.0 0.00 0.00 0.00 71 1017.9
20260505001841 72 64 2.0 3.0 0.00 0.00 0.00 71 1017.5
20260505001338 72 42 5.0 6.0 0.00 0.00 0.00 70 1017.5
20260505000835 72 65 1.0 3.0 0.00 0.00 0.00 71 1017.5
20260505000333 72 49 6.0 6.0 0.00 0.00 0.00 69 1017.9
20260504235829 73 81 5.0 6.0 0.00 0.00 0.00 69 1017.5
20260504235326 73 59 5.0 7.0 0.00 0.00 0.00 69 1017.5
20260504234823 73 50 5.0 8.0 0.00 0.00 0.00 68 1017.5
20260504234321 73 77 8.0 10.0 0.00 0.00 0.00 68 1017.5
20260504233817 73 53 7.0 9.0 0.00 0.00 0.00 67 1017.2
20260504233313 74 82 4.0 6.0 0.00 0.00 0.00 67 1017.2
20260504232810 74 57 7.0 9.0 0.00 0.00 0.00 66 1017.2
20260504232307 74 97 6.0 8.0 0.00 0.00 0.00 67 1017.5
20260504231804 74 61 3.0 5.0 0.00 0.00 0.00 67 1017.2
20260504231300 74 38 6.0 9.0 0.00 0.00 0.00 66 1017.2
20260504230756 74 54 7.0 8.0 0.00 0.00 0.00 66 1017.2
20260504230254 75 59 8.0 10.0 0.00 0.00 0.00 65 1017.2
20260504225753 75 94 5.0 7.0 0.00 0.00 0.00 65 1017.2
20260504225249 75 45 11.0 13.0 0.00 0.00 0.00 65 1017.2
20260504224746 75 52 10.0 11.0 0.00 0.00 0.00 65 1017.2
20260504224243 75 54 5.0 6.0 0.00 0.00 0.00 65 1017.2
20260504223740 75 59 8.0 11.0 0.00 0.00 0.00 64 1017.2
20260504223235 76 84 4.0 7.0 0.00 0.00 0.00 64 1017.2
20260504222732 76 52 3.0 3.0 0.00 0.00 0.00 63 1017.2
20260504222229 75 53 5.0 7.0 0.00 0.00 0.00 63 1017.2
20260504221726 76 37 7.0 11.0 0.00 0.00 0.00 63 1016.9
20260504221218 76 54 8.0 9.0 0.00 0.00 0.00 63 1017.2
20260504220714 76 84 7.0 9.0 0.00 0.00 0.00 62 1017.2
20260504220212 76 87 9.0 10.0 0.00 0.00 0.00 62 1017.2
20260504215708 76 52 9.0 10.0 0.00 0.00 0.00 63 1017.2
20260504215206 76 46 6.0 8.0 0.00 0.00 0.00 61 1017.2
20260504214701 76 52 7.0 9.0 0.00 0.00 0.00 62 1017.2
20260504214158 76 62 9.0 13.0 0.00 0.00 0.00 62 1017.2
20260504213655 77 57 6.0 8.0 0.00 0.00 0.00 61 1017.2
20260504213151 77 87 5.0 8.0 0.00 0.00 0.00 61 1016.9
20260504212648 77 35 9.0 11.0 0.00 0.00 0.00 59 1017.2
20260504212144 77 94 5.0 8.0 0.00 0.00 0.00 58 1016.9
20260504211642 77 70 7.0 9.0 0.00 0.00 0.00 59 1017.2
20260504211138 77 78 4.0 5.0 0.00 0.00 0.00 59 1017.2
20260504210636 77 136 5.0 9.0 0.00 0.00 0.00 59 1017.2
20260504210132 77 66 9.0 10.0 0.00 0.00 0.00 58 1017.2
20260504205630 77 78 5.0 6.0 0.00 0.00 0.00 59 1017.2
20260504205127 77 54 6.0 9.0 0.00 0.00 0.00 59 1017.2
20260504204626 77 88 4.0 6.0 0.00 0.00 0.00 59 1016.9
20260504204124 77 41 5.0 7.0 0.00 0.00 0.00 60 1017.2
20260504203622 78 77 8.0 10.0 0.00 0.00 0.00 59 1016.9
20260504203119 78 46 5.0 9.0 0.00 0.00 0.00 58 1017.2
20260504202620 78 151 6.0 10.0 0.00 0.00 0.00 56 1017.2
20260504202117 77 42 3.0 3.0 0.00 0.00 0.00 58 1017.2
20260504201614 76 89 6.0 8.0 0.00 0.00 0.00 59 1017.2
20260504201112 78 46 7.0 10.0 0.00 0.00 0.00 58 1017.2
20260504200609 77 56 8.0 9.0 0.00 0.00 0.00 58 1017.5
20260504200105 77 49 3.0 3.0 0.00 0.00 0.00 59 1017.5
20260504195601 77 51 5.0 7.0 0.00 0.00 0.00 58 1017.5
20260504195057 77 73 2.0 2.0 0.00 0.00 0.00 59 1017.5
20260504194554 78 54 11.0 14.0 0.00 0.00 0.00 57 1017.9
20260504194050 77 43 9.0 10.0 0.00 0.00 0.00 59 1017.9
20260504193546 77 70 8.0 10.0 0.00 0.00 0.00 60 1017.9
20260504193045 77 87 3.0 5.0 0.00 0.00 0.00 59 1017.9
20260504192543 78 57 3.0 6.0 0.00 0.00 0.00 58 1017.9
20260504192041 77 54 5.0 7.0 0.00 0.00 0.00 59 1017.9
20260504191538 77 70 3.0 5.0 0.00 0.00 0.00 61 1017.9
20260504191034 77 59 5.0 7.0 0.00 0.00 0.00 60 1018.2
20260504190531 77 38 7.0 10.0 0.00 0.00 0.00 60 1018.2
20260504190027 77 87 4.0 5.0 0.00 0.00 0.00 60 1018.2
20260504185524 77 54 9.0 10.0 0.00 0.00 0.00 60 1018.2
20260504185021 76 64 5.0 9.0 0.00 0.00 0.00 60 1018.2
20260504184516 77 42 8.0 9.0 0.00 0.00 0.00 59 1018.6
20260504184012 78 65 9.0 9.0 0.00 0.00 0.00 59 1018.2
20260504183509 78 58 5.0 9.0 0.00 0.00 0.00 57 1018.2
20260504183008 78 48 6.0 8.0 0.00 0.00 0.00 56 1018.6
20260504182503 78 87 7.0 9.0 0.00 0.00 0.00 57 1018.6
20260504182001 78 58 5.0 7.0 0.00 0.00 0.00 58 1018.9
20260504181458 78 71 3.0 5.0 0.00 0.00 0.00 56 1018.6
20260504180956 78 56 4.0 6.0 0.00 0.00 0.00 57 1018.6
20260504180455 78 38 2.0 3.0 0.00 0.00 0.00 57 1018.9
20260504175953 77 88 6.0 9.0 0.00 0.00 0.00 58 1018.6
20260504175450 77 47 7.0 9.0 0.00 0.00 0.00 58 1018.9
20260504174947 79 56 5.0 6.0 0.00 0.00 0.00 57 1018.9
20260504174445 77 48 7.0 9.0 0.00 0.00 0.00 58 1018.6
20260504173942 77 71 5.0 7.0 0.00 0.00 0.00 59 1018.6
20260504173438 77 30 3.0 5.0 0.00 0.00 0.00 59 1018.9
20260504172936 77 51 11.0 14.0 0.00 0.00 0.00 59 1018.9
20260504172431 79 31 7.0 8.0 0.00 0.00 0.00 57 1018.9
20260504171928 79 114 3.0 5.0 0.00 0.00 0.00 55 1018.9
20260504171426 78 69 8.0 9.0 0.00 0.00 0.00 59 1018.9
20260504170922 78 25 6.0 7.0 0.00 0.00 0.00 58 1018.9
20260504170419 78 61 9.0 13.0 0.00 0.00 0.00 59 1018.9
20260504160338 77 21 9.0 13.0 0.00 0.00 0.00 57 1019.6
20260504150802 76 1 5.0 6.0 0.00 0.00 0.00 53 1019.9
20260504150259 75 38 7.0 9.0 0.00 0.00 0.00 55 1019.6
20260504141229 74 22 5.0 8.0 0.00 0.00 0.00 58 1019.6
20260504140725 75 68 5.0 8.0 0.00 0.00 0.00 62 1019.6
20260504140221 75 26 9.0 11.0 0.00 0.00 0.00 60 1019.2
20260504130644 72 45 5.0 10.0 0.00 0.00 0.00 73 1019.2
20260504130140 72 78 5.0 7.0 0.00 0.00 0.00 74 1019.2
20260504120104 68 17 3.0 3.0 0.00 0.00 0.00 83 1018.9
20260504110531 61 99 0.0 0.0 0.00 0.00 0.00 97 1018.6
20260504100454 61 104 0.0 0.0 0.00 0.00 0.00 95 1017.9
20260504081847 63 101 0.0 0.0 0.00 0.00 0.00 90 1017.9
20260504081343 63 100 0.0 0.0 0.00 0.00 0.00 90 1017.9
20260504080839 63 108 0.0 0.0 0.00 0.00 0.00 90 1018.2
20260504080337 63 130 0.0 0.0 0.00 0.00 0.00 90 1017.9
20260504070304 65 34 2.0 2.0 0.00 0.00 0.00 86 1018.2